AFL217 UIII-ZSSS

Flight info

Callsign AFL217
Flight time N/A
Altitude 35000
Route IDENI5D IDENI A815 SERNA/K0845S1070 Y520 POLHO W33 HOT/K0837S1130 W33 NUVPU W52 URGOM/K0841S1100 W54 VAGNU W49 HUR/K0841S1130 B339 SOTMU/K0845S1100 W98 ELKUR W40 DOXAB/K0845S1130 W40 YQG/K0852S1100 W142 DALIM/K0850S1130 A593 VMB W161 SASAN SAS61A
Aircraft B738/M-SDE2E3FGHIRWXY/LB1

Departure

Time 2026-05-04 17:15
Airport Irkutsk International Airport (UIII)

Arrival

Time N/A
Airport Shanghai Hongqiao International Airport (ZSSS)
Time Latitude Longitude Altitude Speed Heading
2026-05-04 16:24 52.27157 104.36636 1584 ft 0 kts 199°
2026-05-04 17:05 52.27116 104.36626 1584 ft 6 kts 160°
2026-05-04 17:06 52.27061 104.36815 1584 ft 14 kts 109°
2026-05-04 17:06 52.27027 104.36965 1583 ft 14 kts 110°
2026-05-04 17:07 52.26999 104.37250 1584 ft 13 kts 86°
2026-05-04 17:07 52.26985 104.37343 1585 ft 13 kts 114°
2026-05-04 17:07 52.26937 104.37525 1587 ft 13 kts 114°
2026-05-04 17:07 52.26901 104.37659 1590 ft 13 kts 113°
2026-05-04 17:08 52.26852 104.37843 1594 ft 20 kts 114°
2026-05-04 17:08 52.26742 104.38256 1608 ft 19 kts 113°
2026-05-04 17:08 52.26690 104.38452 1614 ft 19 kts 114°
2026-05-04 17:09 52.26639 104.38641 1615 ft 18 kts 114°
2026-05-04 17:09 52.26590 104.38830 1629 ft 18 kts 112°
2026-05-04 17:09 52.26541 104.39013 1641 ft 17 kts 113°
2026-05-04 17:10 52.26444 104.39378 1641 ft 19 kts 114°
2026-05-04 17:10 52.26297 104.39933 1653 ft 17 kts 112°
2026-05-04 17:11 52.26251 104.40105 1657 ft 16 kts 114°
2026-05-04 17:11 52.26207 104.40272 1661 ft 16 kts 114°
2026-05-04 17:11 52.26105 104.40651 1678 ft 19 kts 113°
2026-05-04 17:12 52.26048 104.40867 1674 ft 21 kts 113°
2026-05-04 17:12 52.26032 104.41184 1684 ft 14 kts 28°
2026-05-04 17:13 52.26104 104.41236 1694 ft 0 kts 24°
2026-05-04 17:14 52.26212 104.41289 1692 ft 16 kts 341°
2026-05-04 17:14 52.26261 104.41167 1687 ft 0 kts 294°
2026-05-04 17:14 52.26541 104.40118 1669 ft 129 kts 293°
2026-05-04 17:15 52.26990 104.38417 1668 ft 193 kts 293°
2026-05-04 17:15 52.28096 104.34042 3536 ft 208 kts 295°
2026-05-04 17:16 52.29417 104.29358 4353 ft 256 kts 308°
2026-05-04 17:16 52.34123 104.27447 6935 ft 260 kts 13°
2026-05-04 17:17 52.35854 104.28378 7704 ft 264 kts 16°
2026-05-04 17:17 52.41182 104.31341 9968 ft 277 kts 15°
2026-05-04 17:18 52.43037 104.32408 10441 ft 293 kts 22°
2026-05-04 17:18 52.45593 104.38135 10783 ft 353 kts 79°
2026-05-04 17:19 52.44679 104.46346 11708 ft 379 kts 104°
2026-05-04 17:19 52.42705 104.54398 12977 ft 390 kts 130°
2026-05-04 17:20 52.38203 104.59264 14275 ft 394 kts 159°
2026-05-04 17:20 52.33120 104.62824 15509 ft 400 kts 160°
2026-05-04 17:20 52.30557 104.64625 16189 ft 401 kts 160°
2026-05-04 17:21 52.25432 104.68278 17467 ft 406 kts 161°
2026-05-04 17:21 52.20226 104.72013 18643 ft 411 kts 161°
2026-05-04 17:22 52.17624 104.73879 19110 ft 416 kts 161°
2026-05-04 17:22 52.14967 104.75815 19573 ft 421 kts 159°
2026-05-04 17:23 52.07292 104.83287 20937 ft 437 kts 152°
2026-05-04 17:23 52.04676 104.85957 21377 ft 440 kts 152°
2026-05-04 17:23 51.99392 104.91206 22164 ft 450 kts 153°
2026-05-04 17:24 51.96699 104.93834 22598 ft 453 kts 153°
2026-05-04 17:24 51.88532 105.01761 23770 ft 463 kts 153°
2026-05-04 17:25 51.85712 105.04284 24080 ft 462 kts 162°
2026-05-04 17:25 51.77728 105.07730 24999 ft 459 kts 173°
2026-05-04 17:26 51.70892 105.10526 25635 ft 467 kts 172°
2026-05-04 17:26 51.61415 105.14579 26622 ft 473 kts 173°
2026-05-04 17:27 51.55224 105.18349 27142 ft 499 kts 153°
2026-05-04 17:27 51.49451 105.24700 27606 ft 507 kts 152°
2026-05-04 17:28 51.43609 105.31122 28156 ft 511 kts 153°
2026-05-04 17:29 51.34688 105.40622 29023 ft 514 kts 154°
2026-05-04 17:29 51.25767 105.50006 30144 ft 511 kts 155°
2026-05-04 17:30 51.16775 105.59416 30633 ft 517 kts 155°
2026-05-04 17:31 51.10786 105.65675 31337 ft 513 kts 154°
2026-05-04 17:31 51.01835 105.74978 32113 ft 512 kts 154°
2026-05-04 17:32 50.95910 105.81107 32668 ft 509 kts 154°
2026-05-04 17:33 50.86978 105.90309 33337 ft 511 kts 154°
2026-05-04 17:33 50.84003 105.93364 33639 ft 509 kts 154°
2026-05-04 17:34 50.75104 106.02444 34403 ft 505 kts 153°
2026-05-04 17:34 50.70211 106.07465 34665 ft 506 kts 153°
2026-05-04 17:35 50.61350 106.16390 34939 ft 506 kts 155°
2026-05-04 17:35 50.55431 106.22358 34917 ft 502 kts 153°
2026-05-04 17:36 50.49563 106.28249 34916 ft 498 kts 154°
2026-05-04 17:36 50.43725 106.34070 34918 ft 495 kts 154°
2026-05-04 17:37 50.37909 106.39844 34910 ft 494 kts 155°
2026-05-04 17:37 50.33092 106.44631 34916 ft 494 kts 155°
2026-05-04 17:38 50.26710 106.52392 34926 ft 507 kts 143°
2026-05-04 17:38 50.21530 106.59926 34920 ft 510 kts 143°
2026-05-04 17:39 50.14541 106.69986 34927 ft 511 kts 143°
2026-05-04 17:39 50.09259 106.77429 34906 ft 512 kts 145°
2026-05-04 17:40 50.03988 106.84795 34924 ft 514 kts 145°
2026-05-04 17:40 49.98652 106.92226 34906 ft 516 kts 144°
2026-05-04 17:41 49.93304 106.99660 34917 ft 516 kts 145°
2026-05-04 17:41 49.87959 107.07073 34911 ft 515 kts 146°
2026-05-04 17:42 49.82623 107.14451 34838 ft 515 kts 146°
2026-05-04 17:42 49.77294 107.21796 34910 ft 512 kts 145°
2026-05-04 17:43 49.71980 107.29098 34902 ft 511 kts 145°
2026-05-04 17:43 49.66674 107.36363 34911 ft 509 kts 146°
2026-05-04 17:44 49.61369 107.43606 34911 ft 508 kts 145°
2026-05-04 17:44 49.56064 107.50826 34893 ft 508 kts 146°
2026-05-04 17:45 49.50766 107.58014 34888 ft 507 kts 146°
2026-05-04 17:45 49.45466 107.65186 34879 ft 508 kts 145°
2026-05-04 17:46 49.40188 107.72305 34880 ft 508 kts 146°
2026-05-04 17:46 49.34869 107.79458 34886 ft 508 kts 146°
2026-05-04 17:47 49.29552 107.86587 34888 ft 508 kts 146°
2026-05-04 17:47 49.24221 107.93714 34852 ft 509 kts 146°
2026-05-04 17:48 49.18884 108.00829 34887 ft 508 kts 146°
2026-05-04 17:48 49.13551 108.07917 34876 ft 508 kts 146°
2026-05-04 17:49 49.08218 108.14984 34879 ft 507 kts 146°
2026-05-04 17:49 49.02887 108.22026 34876 ft 507 kts 146°
2026-05-04 17:50 48.97581 108.29015 34867 ft 507 kts 146°
2026-05-04 17:50 48.92249 108.36020 34838 ft 506 kts 145°
2026-05-04 17:51 48.86920 108.42999 34871 ft 505 kts 146°
2026-05-04 17:51 48.81597 108.49948 34842 ft 505 kts 146°
2026-05-04 17:52 48.76259 108.56897 34854 ft 506 kts 146°
2026-05-04 17:52 48.70919 108.63828 34829 ft 506 kts 146°
2026-05-04 17:53 48.65577 108.70743 34792 ft 507 kts 146°
2026-05-04 17:53 48.60226 108.77649 34831 ft 506 kts 145°
2026-05-04 17:54 48.54871 108.84541 34822 ft 506 kts 146°
2026-05-04 17:54 48.49519 108.91406 34828 ft 506 kts 146°
2026-05-04 17:55 48.44142 108.98285 34818 ft 506 kts 146°
2026-05-04 17:55 48.38807 109.05091 34825 ft 506 kts 146°
2026-05-04 17:56 48.33420 109.11943 34813 ft 506 kts 146°
2026-05-04 17:56 48.28043 109.18762 34806 ft 506 kts 146°
2026-05-04 17:57 48.22660 109.25568 34803 ft 506 kts 146°
2026-05-04 17:57 48.17264 109.32372 34815 ft 506 kts 146°
2026-05-04 17:58 48.11869 109.39152 34807 ft 507 kts 146°
2026-05-04 17:58 48.06461 109.45928 34792 ft 507 kts 145°
2026-05-04 17:59 48.01053 109.52682 34817 ft 508 kts 146°
2026-05-04 18:00 47.92893 109.62818 34801 ft 510 kts 146°
2026-05-04 18:00 47.87436 109.69592 34813 ft 511 kts 145°
2026-05-04 18:01 47.81976 109.76398 34806 ft 512 kts 145°
2026-05-04 18:01 47.76582 109.83097 34795 ft 511 kts 146°
2026-05-04 18:02 47.68389 109.93189 34792 ft 508 kts 145°
2026-05-04 18:02 47.62942 109.99869 34798 ft 506 kts 146°
2026-05-04 18:03 47.57518 110.06500 34777 ft 505 kts 146°
2026-05-04 18:03 47.52110 110.13093 34790 ft 502 kts 146°
2026-05-04 18:04 47.46723 110.19641 34791 ft 501 kts 146°
2026-05-04 18:05 47.38650 110.29423 34783 ft 499 kts 146°
2026-05-04 18:05 47.33288 110.35897 34794 ft 499 kts 146°
2026-05-04 18:06 47.25222 110.45603 34783 ft 499 kts 146°
2026-05-04 18:06 47.19873 110.52018 34782 ft 498 kts 146°
2026-05-04 18:07 47.14492 110.58455 34785 ft 499 kts 147°
2026-05-04 18:07 47.09100 110.64887 34761 ft 499 kts 146°
2026-05-04 18:08 47.03704 110.71307 34770 ft 500 kts 146°
2026-05-04 18:08 46.98300 110.77719 34746 ft 500 kts 146°
2026-05-04 18:09 46.87497 110.90488 34736 ft 499 kts 147°
2026-05-04 18:10 46.82096 110.96846 34748 ft 498 kts 146°
2026-05-04 18:10 46.76693 111.03188 34747 ft 498 kts 146°
2026-05-04 18:11 46.71289 111.09516 34740 ft 498 kts 147°
2026-05-04 18:11 46.65884 111.15827 34702 ft 498 kts 147°
2026-05-04 18:12 46.60473 111.22129 34729 ft 498 kts 146°
2026-05-04 18:12 46.55064 111.28414 34726 ft 498 kts 146°
2026-05-04 18:13 46.49641 111.34695 34716 ft 499 kts 147°
2026-05-04 18:14 46.41484 111.44114 34703 ft 500 kts 146°
2026-05-04 18:14 46.36028 111.50393 34674 ft 501 kts 146°
2026-05-04 18:15 46.25136 111.62881 34683 ft 502 kts 146°
2026-05-04 18:16 46.19654 111.69140 34661 ft 504 kts 146°
2026-05-04 18:16 46.14142 111.75418 34673 ft 504 kts 146°
2026-05-04 18:17 46.05875 111.84804 34647 ft 505 kts 146°
2026-05-04 18:18 45.97591 111.94171 34646 ft 505 kts 146°
2026-05-04 18:18 45.92056 112.00409 34648 ft 505 kts 146°
2026-05-04 18:19 45.83785 112.09698 34618 ft 506 kts 146°
2026-05-04 18:19 45.78250 112.15899 34612 ft 504 kts 146°
2026-05-04 18:20 45.72733 112.22063 34616 ft 503 kts 146°
2026-05-04 18:20 45.67209 112.28216 34620 ft 503 kts 146°
2026-05-04 18:21 45.61688 112.34350 34615 ft 502 kts 146°
2026-05-04 18:21 45.56169 112.40465 34601 ft 502 kts 146°
2026-05-04 18:22 45.50653 112.46563 34609 ft 501 kts 146°
2026-05-04 18:22 45.45150 112.52631 34612 ft 500 kts 146°
2026-05-04 18:23 45.39643 112.58686 34597 ft 500 kts 146°
2026-05-04 18:23 45.34137 112.64725 34597 ft 500 kts 146°
2026-05-04 18:24 45.28624 112.70756 34587 ft 500 kts 146°
2026-05-04 18:24 45.23118 112.76764 34573 ft 499 kts 146°
2026-05-04 18:25 45.17608 112.82761 34576 ft 499 kts 146°
2026-05-04 18:25 45.13032 112.87729 34568 ft 498 kts 146°
2026-05-04 18:26 45.06635 112.94657 34563 ft 498 kts 147°
2026-05-04 18:26 45.02024 112.99635 34571 ft 498 kts 146°
2026-05-04 18:27 44.96519 113.05564 34564 ft 497 kts 146°
2026-05-04 18:27 44.91018 113.11467 34557 ft 496 kts 147°
2026-05-04 18:28 44.85558 113.17305 34553 ft 496 kts 146°
2026-05-04 18:28 44.80246 113.23515 34558 ft 501 kts 134°
2026-05-04 18:29 44.76218 113.31578 34538 ft 508 kts 116°
2026-05-04 18:29 44.73436 113.40726 34546 ft 509 kts 112°
2026-05-04 18:30 44.69387 113.54510 34551 ft 508 kts 113°
2026-05-04 18:31 44.66614 113.63630 34551 ft 508 kts 113°
2026-05-04 18:31 44.63804 113.72730 34555 ft 508 kts 114°
2026-05-04 18:32 44.60985 113.81819 34560 ft 508 kts 114°
2026-05-04 18:32 44.58163 113.90900 34564 ft 508 kts 113°
2026-05-04 18:33 44.55332 113.99983 34563 ft 508 kts 114°
2026-05-04 18:33 44.52493 114.09064 34569 ft 508 kts 114°
2026-05-04 18:34 44.49648 114.18129 34562 ft 509 kts 113°
2026-05-04 18:34 44.46792 114.27198 34561 ft 509 kts 114°
2026-05-04 18:35 44.43926 114.36266 34565 ft 509 kts 114°
2026-05-04 18:35 44.41070 114.45272 34572 ft 509 kts 114°
2026-05-04 18:36 44.38189 114.54325 34571 ft 509 kts 114°
2026-05-04 18:36 44.35303 114.63361 34571 ft 510 kts 114°
2026-05-04 18:37 44.32415 114.72373 34577 ft 509 kts 114°
2026-05-04 18:37 44.29512 114.81402 34574 ft 509 kts 114°
2026-05-04 18:38 44.26603 114.90416 34580 ft 509 kts 114°
2026-05-04 18:38 44.23686 114.99424 34581 ft 509 kts 114°
2026-05-04 18:39 44.20766 115.08409 34581 ft 509 kts 114°
2026-05-04 18:39 44.17841 115.17381 34578 ft 508 kts 114°
2026-05-04 18:40 44.14914 115.26327 34578 ft 508 kts 114°
2026-05-04 18:40 44.11996 115.35212 34576 ft 507 kts 114°
2026-05-04 18:41 44.09057 115.44131 34572 ft 507 kts 114°
2026-05-04 18:41 44.06116 115.53023 34570 ft 506 kts 114°
2026-05-04 18:42 44.03165 115.61913 34572 ft 506 kts 114°
2026-05-04 18:42 44.00206 115.70788 34575 ft 506 kts 114°
2026-05-04 18:43 43.97237 115.79644 34560 ft 506 kts 114°
2026-05-04 18:43 43.94270 115.88492 34561 ft 505 kts 114°
2026-05-04 18:43 43.92413 115.92610 34479 ft 503 kts 134°
2026-05-04 18:44 43.89810 115.95765 34628 ft 493 kts 148°
2026-05-04 18:44 43.87863 115.97357 34546 ft 490 kts 159°
2026-05-04 18:44 43.83582 115.99193 34602 ft 480 kts 172°
2026-05-04 18:45 43.77036 116.00995 34571 ft 481 kts 173°
2026-05-04 18:45 43.70445 116.02758 34557 ft 484 kts 173°
2026-05-04 18:46 43.63836 116.04592 34589 ft 485 kts 172°
2026-05-04 18:46 43.57208 116.06462 34610 ft 486 kts 173°
2026-05-04 18:47 43.50584 116.08332 34600 ft 486 kts 173°
2026-05-04 18:47 43.43951 116.10195 34598 ft 486 kts 173°
2026-05-04 18:48 43.37393 116.12037 34644 ft 484 kts 172°
2026-05-04 18:48 43.30744 116.13889 34638 ft 483 kts 172°
2026-05-04 18:49 43.24203 116.15700 34629 ft 482 kts 172°
2026-05-04 18:49 43.17637 116.17517 34658 ft 481 kts 172°
2026-05-04 18:50 43.11180 116.20030 34672 ft 488 kts 158°
2026-05-04 18:50 43.05414 116.24985 34668 ft 494 kts 142°
2026-05-04 18:51 43.00118 116.30962 34681 ft 493 kts 141°
2026-05-04 18:51 42.94825 116.36911 34675 ft 493 kts 142°
2026-05-04 18:52 42.89483 116.42790 34695 ft 493 kts 142°
2026-05-04 18:52 42.84122 116.48628 34701 ft 493 kts 142°
2026-05-04 18:53 42.78757 116.54452 34703 ft 494 kts 142°
2026-05-04 18:53 42.73383 116.60277 34706 ft 494 kts 142°
2026-05-04 18:54 42.68006 116.66094 34728 ft 494 kts 141°
2026-05-04 18:54 42.62623 116.71905 34741 ft 494 kts 141°
2026-05-04 18:55 42.57237 116.77705 34748 ft 494 kts 142°
2026-05-04 18:55 42.49150 116.86383 34742 ft 494 kts 141°
2026-05-04 18:56 42.43760 116.92147 34772 ft 494 kts 141°
2026-05-04 18:56 42.38397 116.97857 34760 ft 494 kts 142°
2026-05-04 18:57 42.33005 117.03606 34788 ft 493 kts 141°
2026-05-04 18:57 42.27623 117.09350 34795 ft 493 kts 141°
2026-05-04 18:58 42.22234 117.15059 34787 ft 492 kts 142°
2026-05-04 18:58 42.16844 117.20757 34814 ft 492 kts 141°
2026-05-04 18:59 42.14008 117.23309 34741 ft 491 kts 154°
2026-05-04 18:59 42.10850 117.25002 34847 ft 485 kts 165°
2026-05-04 18:59 42.07548 117.25881 34813 ft 482 kts 177°
2026-05-04 18:59 42.04215 117.25978 34846 ft 479 kts 182°
2026-05-04 19:00 41.97523 117.25887 34818 ft 481 kts 182°
2026-05-04 19:00 41.90826 117.25821 34839 ft 482 kts 182°
2026-05-04 19:01 41.84105 117.25802 34833 ft 484 kts 182°
2026-05-04 19:01 41.77358 117.25798 34831 ft 485 kts 182°
2026-05-04 19:02 41.70591 117.25792 34833 ft 487 kts 181°
2026-05-04 19:02 41.63859 117.25779 34827 ft 488 kts 181°
2026-05-04 19:03 41.57024 117.25756 34837 ft 488 kts 182°
2026-05-04 19:03 41.50275 117.25622 34782 ft 488 kts 188°
2026-05-04 19:04 41.46959 117.24868 34898 ft 481 kts 195°
2026-05-04 19:04 41.43684 117.23918 34834 ft 482 kts 194°
2026-05-04 19:04 41.37127 117.21956 34842 ft 483 kts 195°
2026-05-04 19:05 41.30557 117.20022 34837 ft 483 kts 195°
2026-05-04 19:05 41.23967 117.18119 34820 ft 484 kts 195°
2026-05-04 19:06 41.17430 117.16248 34838 ft 484 kts 194°
2026-05-04 19:06 41.10852 117.14368 34820 ft 484 kts 194°
2026-05-04 19:07 41.04255 117.12482 34823 ft 484 kts 194°
2026-05-04 19:07 40.97661 117.10601 34830 ft 484 kts 194°
2026-05-04 19:08 40.91072 117.08719 34814 ft 484 kts 194°
2026-05-04 19:08 40.84497 117.06838 34824 ft 483 kts 194°
2026-05-04 19:09 40.77918 117.04964 34831 ft 483 kts 194°
2026-05-04 19:09 40.71552 117.02430 34824 ft 476 kts 208°
2026-05-04 19:10 40.65744 116.98300 34834 ft 474 kts 212°
2026-05-04 19:10 40.59978 116.94087 34835 ft 474 kts 211°
2026-05-04 19:11 40.54218 116.89947 34821 ft 475 kts 211°
2026-05-04 19:11 40.48400 116.85802 34823 ft 476 kts 211°
2026-05-04 19:12 40.39668 116.79586 34829 ft 476 kts 211°
2026-05-04 19:13 40.33565 116.76154 34835 ft 483 kts 193°
2026-05-04 19:13 40.30226 116.75596 34830 ft 486 kts 181°
2026-05-04 19:13 40.27982 116.75676 34826 ft 488 kts 172°
2026-05-04 19:14 40.21271 116.77099 34822 ft 490 kts 169°
2026-05-04 19:14 40.14557 116.78598 34823 ft 490 kts 170°
2026-05-04 19:15 40.07818 116.79984 34824 ft 491 kts 171°
2026-05-04 19:15 39.99926 116.81542 34820 ft 491 kts 171°
2026-05-04 19:16 39.94333 116.82641 34816 ft 491 kts 171°
2026-05-04 19:16 39.87566 116.83965 34816 ft 491 kts 171°
2026-05-04 19:17 39.80802 116.85207 34800 ft 491 kts 176°
2026-05-04 19:17 39.74023 116.84696 34837 ft 486 kts 188°
2026-05-04 19:18 39.67311 116.83524 34821 ft 486 kts 188°
2026-05-04 19:18 39.60598 116.82357 34811 ft 487 kts 188°
2026-05-04 19:19 39.53879 116.81230 34806 ft 487 kts 188°
2026-05-04 19:19 39.47203 116.80131 34812 ft 487 kts 187°
2026-05-04 19:20 39.40545 116.79038 34811 ft 487 kts 187°
2026-05-04 19:20 39.33835 116.77937 34813 ft 487 kts 187°
2026-05-04 19:21 39.27116 116.76835 34813 ft 487 kts 187°
2026-05-04 19:21 39.20380 116.75732 34814 ft 487 kts 187°
2026-05-04 19:22 39.13648 116.74632 34810 ft 487 kts 187°
2026-05-04 19:22 39.06918 116.73533 34811 ft 488 kts 187°
2026-05-04 19:23 39.00180 116.72435 34810 ft 488 kts 187°
2026-05-04 19:23 38.93474 116.71342 34811 ft 488 kts 187°
2026-05-04 19:24 38.86778 116.70254 34811 ft 488 kts 187°
2026-05-04 19:24 38.80161 116.69187 34813 ft 488 kts 187°
2026-05-04 19:25 38.73418 116.68088 34817 ft 487 kts 187°
2026-05-04 19:25 38.66686 116.66978 34824 ft 487 kts 187°
2026-05-04 19:26 38.60002 116.65988 34835 ft 487 kts 185°
2026-05-04 19:26 38.53238 116.65291 34820 ft 488 kts 184°
2026-05-04 19:27 38.46477 116.64567 34824 ft 487 kts 185°
2026-05-04 19:27 38.39725 116.63769 34831 ft 487 kts 185°
2026-05-04 19:28 38.32962 116.62984 34833 ft 487 kts 184°
2026-05-04 19:28 38.26213 116.63492 34834 ft 488 kts 165°
2026-05-04 19:29 38.19712 116.65969 34823 ft 488 kts 160°
2026-05-04 19:29 38.13223 116.68468 34834 ft 487 kts 162°
2026-05-04 19:30 38.06729 116.70900 34844 ft 487 kts 161°
2026-05-04 19:30 38.00280 116.73405 34839 ft 487 kts 161°
2026-05-04 19:31 37.93789 116.75908 34846 ft 487 kts 161°
2026-05-04 19:31 37.87290 116.78380 34847 ft 488 kts 161°
2026-05-04 19:32 37.80786 116.80841 34846 ft 488 kts 161°
2026-05-04 19:32 37.74279 116.83297 34847 ft 487 kts 161°
2026-05-04 19:33 37.67773 116.85749 34848 ft 487 kts 162°
2026-05-04 19:33 37.61317 116.88178 34864 ft 487 kts 162°
2026-05-04 19:34 37.54815 116.90617 34858 ft 487 kts 162°
2026-05-04 19:34 37.48320 116.93047 34863 ft 487 kts 162°
2026-05-04 19:35 37.41820 116.95469 34867 ft 486 kts 162°
2026-05-04 19:35 37.35330 116.97870 34866 ft 486 kts 162°
2026-05-04 19:36 37.28859 117.00304 34872 ft 486 kts 160°
2026-05-04 19:36 37.22517 117.03282 34864 ft 485 kts 157°
2026-05-04 19:37 37.16221 117.06328 34871 ft 485 kts 158°
2026-05-04 19:37 37.09943 117.09278 34877 ft 484 kts 158°
2026-05-04 19:38 37.03627 117.12207 34884 ft 484 kts 158°
2026-05-04 19:38 36.97307 117.15128 34873 ft 484 kts 159°
2026-05-04 19:39 36.90990 117.18036 34899 ft 483 kts 159°
2026-05-04 19:39 36.84638 117.20842 34875 ft 483 kts 166°
2026-05-04 19:40 36.78024 117.21785 34910 ft 478 kts 180°
2026-05-04 19:40 36.71390 117.21672 34908 ft 477 kts 181°
2026-05-04 19:41 36.64778 117.21559 34912 ft 477 kts 181°
2026-05-04 19:41 36.58134 117.21490 34918 ft 477 kts 181°
2026-05-04 19:42 36.51500 117.21423 34916 ft 476 kts 181°
2026-05-04 19:42 36.44917 117.21371 34934 ft 476 kts 181°
2026-05-04 19:43 36.38344 117.22438 34933 ft 480 kts 163°
2026-05-04 19:43 36.31976 117.24941 34950 ft 480 kts 162°
2026-05-04 19:44 36.25610 117.27411 34954 ft 479 kts 163°
2026-05-04 19:44 36.19224 117.29789 34959 ft 479 kts 163°
2026-05-04 19:45 36.12842 117.32132 34963 ft 478 kts 164°
2026-05-04 19:45 36.06458 117.34464 34955 ft 478 kts 164°
2026-05-04 19:46 36.00080 117.36812 34961 ft 478 kts 164°
2026-05-04 19:46 35.93712 117.39208 34961 ft 478 kts 163°
2026-05-04 19:47 35.87358 117.41636 34964 ft 478 kts 163°
2026-05-04 19:47 35.81006 117.44030 34951 ft 477 kts 163°
2026-05-04 19:48 35.74652 117.46401 34962 ft 477 kts 164°
2026-05-04 19:48 35.68299 117.48762 34982 ft 477 kts 164°
2026-05-04 19:49 35.61983 117.51106 34971 ft 477 kts 164°
2026-05-04 19:49 35.55637 117.53459 34976 ft 477 kts 164°
2026-05-04 19:50 35.49283 117.55810 34977 ft 477 kts 164°
2026-05-04 19:50 35.42926 117.58158 34974 ft 477 kts 164°
2026-05-04 19:51 35.36572 117.60499 34979 ft 477 kts 164°
2026-05-04 19:51 35.30225 117.62833 34979 ft 476 kts 164°
2026-05-04 19:52 35.23867 117.65163 34987 ft 476 kts 164°
2026-05-04 19:52 35.17523 117.67479 34988 ft 476 kts 164°
2026-05-04 19:53 35.11165 117.69786 34991 ft 476 kts 164°
2026-05-04 19:53 35.04809 117.72113 34987 ft 476 kts 164°
2026-05-04 19:54 34.98468 117.74461 34991 ft 476 kts 164°
2026-05-04 19:54 34.92156 117.76765 34992 ft 477 kts 165°
2026-05-04 19:55 34.85792 117.79072 34991 ft 477 kts 164°
2026-05-04 19:55 34.79499 117.81374 34983 ft 477 kts 164°
2026-05-04 19:56 34.73197 117.83692 34985 ft 477 kts 164°
2026-05-04 19:56 34.66834 117.86002 34989 ft 477 kts 164°
2026-05-04 19:57 34.60471 117.88291 34988 ft 477 kts 164°
2026-05-04 19:57 34.54112 117.90561 34983 ft 476 kts 165°
2026-05-04 19:58 34.47751 117.92824 34984 ft 476 kts 165°
2026-05-04 19:58 34.42467 117.94698 34980 ft 476 kts 165°
2026-05-04 19:59 34.36113 117.96935 34982 ft 475 kts 165°
2026-05-04 19:59 34.29777 117.99244 34984 ft 476 kts 160°
2026-05-04 20:00 34.23057 118.03856 34970 ft 482 kts 143°
2026-05-04 20:00 34.18576 118.07935 34976 ft 482 kts 144°
2026-05-04 20:01 34.13170 118.12709 34979 ft 480 kts 145°
2026-05-04 20:01 34.07743 118.17419 34979 ft 480 kts 145°
2026-05-04 20:02 34.02366 118.22106 34972 ft 479 kts 145°
2026-05-04 20:02 33.96961 118.26811 34980 ft 479 kts 146°
2026-05-04 20:03 33.91587 118.31549 34985 ft 478 kts 144°
2026-05-04 20:03 33.86225 118.36302 34985 ft 478 kts 145°
2026-05-04 20:04 33.80852 118.41019 34989 ft 477 kts 145°
2026-05-04 20:04 33.75499 118.45689 34988 ft 477 kts 146°
2026-05-04 20:05 33.70109 118.50379 34984 ft 477 kts 146°
2026-05-04 20:05 33.64753 118.55032 34990 ft 477 kts 146°
2026-05-04 20:06 33.59367 118.59699 34995 ft 477 kts 146°
2026-05-04 20:06 33.53973 118.64354 34989 ft 477 kts 146°
2026-05-04 20:07 33.48570 118.69012 34989 ft 478 kts 146°
2026-05-04 20:07 33.43188 118.73687 34981 ft 479 kts 146°
2026-05-04 20:08 33.37832 118.78357 35000 ft 479 kts 146°
2026-05-04 20:08 33.32421 118.83020 35004 ft 480 kts 146°
2026-05-04 20:09 33.27007 118.87710 35003 ft 481 kts 146°
2026-05-04 20:09 33.21601 118.92445 35003 ft 482 kts 146°
2026-05-04 20:10 33.16186 118.97176 35004 ft 482 kts 146°
2026-05-04 20:10 33.10749 119.01905 35001 ft 482 kts 147°
2026-05-04 20:11 33.05305 119.06594 35009 ft 483 kts 147°
2026-05-04 20:11 32.99838 119.11268 35007 ft 483 kts 147°
2026-05-04 20:12 32.94380 119.15953 35008 ft 484 kts 147°
2026-05-04 20:12 32.88983 119.20669 35010 ft 485 kts 146°
2026-05-04 20:13 32.83534 119.25485 35008 ft 484 kts 146°
2026-05-04 20:13 32.78152 119.30193 35014 ft 484 kts 147°
2026-05-04 20:14 32.72720 119.34909 35015 ft 483 kts 147°
2026-05-04 20:14 32.67284 119.39615 35021 ft 483 kts 147°
2026-05-04 20:15 32.61853 119.44309 35019 ft 483 kts 147°
2026-05-04 20:15 32.56426 119.48987 35023 ft 482 kts 147°
2026-05-04 20:16 32.50983 119.53655 35021 ft 482 kts 147°
2026-05-04 20:16 32.45580 119.58362 35018 ft 483 kts 147°
2026-05-04 20:17 32.40177 119.63080 35031 ft 483 kts 148°
2026-05-04 20:17 32.34708 119.67705 35029 ft 483 kts 148°
2026-05-04 20:18 32.29246 119.72283 35029 ft 484 kts 148°
2026-05-04 20:18 32.23761 119.76916 35009 ft 486 kts 149°
2026-05-04 20:19 32.18299 119.81611 35021 ft 487 kts 148°
2026-05-04 20:19 32.12822 119.86304 35023 ft 487 kts 149°
2026-05-04 20:20 32.07316 119.90963 35029 ft 487 kts 149°
2026-05-04 20:20 32.01814 119.95656 35028 ft 488 kts 149°
2026-05-04 20:21 31.96343 120.00411 35026 ft 489 kts 149°